This is the latest recevied weather packets stored in our database for station/object KB3FKJ. If no packets are shown the sender has not sent any weather packets the latest 10 day(s).
| Time | Temp. | Humidity | Pressure | Rain* | Wind** | Luminosity | Snow |
|---|---|---|---|---|---|---|---|
| 1777555074 | 8.89° C | 82% | 1008.6 hPa | 0 mm | - | 328 W/m² | - |
| 1777554772 | 8.89° C | 82% | 1008.6 hPa | 0 mm | - | 85 W/m² | - |
| 1777554468 | 8.89° C | 83% | 1008.6 hPa | 0 mm | - | 96 W/m² | - |
| 1777554165 | 8.89° C | 81% | 1008.9 hPa | 0 mm | - | 69 W/m² | - |
| 1777553862 | 8.89° C | 84% | 1008.9 hPa | 0 mm | - | 63 W/m² | - |
| 1777553558 | 8.89° C | 85% | 1008.9 hPa | 0 mm | - | 55 W/m² | - |
| 1777553254 | 8.33° C | 84% | 1009 hPa | 0 mm | - | 34 W/m² | - |
| 1777552950 | 8.89° C | 83% | 1008.9 hPa | 0 mm | - | 40 W/m² | - |
| 1777552645 | 8.33° C | 84% | 1008.7 hPa | 0 mm | - | 64 W/m² | - |
| 1777552342 | 8.89° C | 85% | 1008.8 hPa | 0 mm | - | 60 W/m² | - |
| 1777552039 | 8.33° C | 85% | 1008.9 hPa | 0 mm | - | 54 W/m² | - |
| 1777551736 | 8.33° C | 86% | 1008.8 hPa | 0 mm | - | 41 W/m² | - |
| 1777551433 | 8.33° C | 84% | 1008.8 hPa | 0 mm | - | 39 W/m² | - |
| 1777551130 | 8.33° C | 83% | 1008.8 hPa | 0 mm | - | 39 W/m² | - |
| 1777550828 | 8.89° C | 84% | 1008.8 hPa | 0 mm | - | 55 W/m² | - |
| 1777550523 | 8.89° C | 82% | 1008.8 hPa | 0 mm | - | 51 W/m² | - |
| 1777550219 | 8.33° C | 84% | 1008.9 hPa | 0 mm | - | 61 W/m² | - |
| 1777549916 | 8.89° C | 83% | 1008.9 hPa | 0 mm | - | 60 W/m² | - |
| 1777549612 | 8.89° C | 83% | 1008.7 hPa | 0 mm | - | 56 W/m² | - |
| 1777549307 | 8.89° C | 82% | 1008.8 hPa | 0 mm | - | 49 W/m² | - |
| 1777549005 | 8.33° C | 83% | 1008.9 hPa | 0 mm | - | 81 W/m² | - |
| 1777548701 | 7.78° C | 84% | 1008.8 hPa | 0 mm | - | 60 W/m² | - |
| 1777548399 | 7.78° C | 84% | 1009.1 hPa | 0 mm | - | 30 W/m² | - |
| 1777548096 | 7.78° C | 85% | 1008.9 hPa | 0 mm | - | 25 W/m² | - |
| 1777547791 | 7.78° C | 85% | 1008.8 hPa | 0 mm | - | 17 W/m² | - |
* Rain latest hour (hover to see other rain measurements)
** Current wind speed in m/s (hover to see current wind gust speed)